Regional Weather Roundup
Issued by NWS

Home | Current Version | Previous Version | Graphics & Text | Print | Product List | Glossary On
Versions: 1 2 3 4 5 6 7 8 9 10 11 12 13 14 15 16 17 18 19 20 21 22 23 24 25 26 27 28 29 30 31 32 33 34 35 36 37 38 39 40 41 42 43 44 45 46 47 48 49 50
028
ASUS45 KCYS 231510
RWRWY

WYOMING REGIONAL WEATHER ROUNDUP
NATIONAL WEATHER SERVICE CHEYENNE WY
800 AM MST FRI FEB 23 2018

NOTE:  "FAIR" INDICATES FEW OR NO CLOUDS BELOW 12,000 FEET
WITH NO SIGNIFICANT WEATHER AND/OR OBSTRUCTIONS TO VISIBILITY.

WYZ001-231600-
YELLOWSTONE NATIONAL PARK

CITY           SKY/WX    TMP DP  RH WIND       PRES   REMARKS
LK YELLOWSTONE   N/A    -11 -16  78 CALM      29.93R
W YELLOWSTONE  NOT AVBL

$$
WYZ002>013-054>058-071-098>099-231600-
NORTHERN WYOMING

CITY           SKY/WX    TMP DP  RH WIND       PRES   REMARKS
JACKSON        FLURRIES  -1  -5  82 NE8       29.98R WCI -15
CODY           FAIR       1  -5  75 CALM      30.02S
GREYBULL       FAIR     -15 -17  91 CALM      30.15R
WORLAND        FAIR     -13 -16  86 CALM      30.11R
SHERIDAN       FAIR      -7 -11  83 SW3       30.09R
BUFFALO        FAIR       7  -4  60 SE5       30.01S WCI  -2
GILLETTE       FAIR       1  -5  75 VRB3      30.08R
HULETT         FAIR       1  -8  66 MISG      30.10R
NEWCASTLE      FAIR      -2  -8  78 E3        30.14R

$$
WYZ014>020-022>026-101>103-231600-
CENTRAL WYOMING

CITY           SKY/WX    TMP DP  RH WIND       PRES   REMARKS
BIG PINEY      LGT SNOW   7   4  87 CALM      29.93S FOG
PINEDALE       CLOUDY     3   0  85 NW7       29.93S FOG     WCI  -9
DUBOIS           N/A    N/A N/A N/A MISG        N/A
LANDER         FAIR       2  -4  76 NW3       30.00S
RIVERTON       FAIR       2  -5  72 N5        30.01F WCI  -8
CASPER         FAIR     -10 -14  82 CALM      30.03S
DOUGLAS        FAIR      -9 -14  78 CALM      30.08S

$$
WYZ021-027>030-104>119-231600-
SOUTHERN WYOMING

CITY           SKY/WX    TMP DP  RH WIND       PRES   REMARKS
EVANSTON       CLOUDY     7   3  84 E12       29.87R WCI  -8
ROCK SPRINGS   MOCLDY     7   2  80 E6        29.91R WCI  -3
DIXON          CLOUDY    16  10  77 E7        29.96R WCI   6
RAWLINS        FAIR      10   6  84 E6        29.94R WCI   0
SARATOGA       FAIR       9   3  78 S9        29.94R WCI  -5
LARAMIE        FAIR       6   4  91 S9        29.93R WCI  -8
CHEYENNE       FAIR      16  11  80 W5        30.00R WCI   9
TORRINGTON     FAIR      10   4  76 NW6       30.11S WCI   0
PINE BLUFFS    FAIR       3   0  85 CALM      30.06R

$$




USA.gov is the U.S. government's official web portal to all federal, state and local government web resources and services.